Location: Cisewo
(53.3833°N, 14.9000°E)
Time: 12:04:05
(UTC+00:00)

Lacrosse 5 rocket - Pass Details

Date: 18 April 2021
Orbit: 460 x 634 km, 57.0° (Epoch: 16 May)

Event Time Altitude Azimuth Distance (km) Brightness Sun altitude
Rises 19:26:23 0° 264° (W) 2,679 5.6 -11.2°
Reaches altitude 10° 19:28:34 10° 269° (W) 1,819 4.8 -11.5°
Maximum altitude 19:32:38 57° 349° (N) 674 2.0 -12.0°
Drops below altitude 10° 19:36:58 10° 69° (ENE) 1,929 3.8 -12.5°
Enters shadow 19:38:42 - 72° (ENE) 2,606 4.4 -12.7°
